| time (UTC) | temp C | wind direction | speed KPH | gust KPH | rain 1hr cm | rain 24hr cm | rain mn cm | humidity % | barometer mb |
| 20260505100700 | 14 | 0 | 0.0 | 9.7 | 0.00 | 0.00 | 0.00 | 69 | 1010.1 |
| 20260505095201 | 15 | 0 | 0.0 | 6.4 | 0.00 | 0.00 | 0.00 | 68 | 1009.9 |
| 20260505093701 | 15 | 0 | 0.0 | 8.0 | 0.00 | 0.00 | 0.00 | 68 | 1009.8 |
| 20260505092200 | 15 | 0 | 0.0 | 8.0 | 0.00 | 0.00 | 0.00 | 67 | 1009.6 |
| 20260505090701 | 15 | 207 | 1.6 | 9.7 | 0.00 | 0.00 | 0.00 | 67 | 1009.8 |
| 20260505085201 | 15 | 0 | 0.0 | 14.5 | 0.00 | 0.00 | 0.00 | 67 | 1009.7 |
| 20260505083700 | 15 | 0 | 0.0 | 6.4 | 0.00 | 0.00 | 0.00 | 67 | 1009.7 |
| 20260505082201 | 15 | 0 | 0.0 | 8.0 | 0.00 | 0.00 | 0.00 | 68 | 1009.8 |
| 20260505080701 | 15 | 0 | 0.0 | 8.0 | 0.00 | 0.00 | 0.00 | 70 | 1009.7 |
| 20260505075200 | 15 | 0 | 0.0 | 6.4 | 0.00 | 0.00 | 0.00 | 69 | 1009.5 |
| 20260505073701 | 15 | 0 | 0.0 | 8.0 | 0.00 | 0.00 | 0.00 | 69 | 1009.6 |
| 20260505072201 | 15 | 0 | 0.0 | 4.8 | 0.00 | 0.00 | 0.00 | 69 | 1009.7 |
| 20260505070700 | 15 | 0 | 0.0 | 0.0 | 0.00 | 0.00 | 0.00 | 69 | 1009.7 |
| 20260505065201 | 14 | 0 | 0.0 | 0.0 | 0.00 | 0.00 | 0.00 | 68 | 1009.7 |
| 20260505063701 | 13 | 0 | 0.0 | 0.0 | 0.00 | 0.00 | 0.00 | 69 | 1009.8 |
| 20260505062200 | 13 | 0 | 0.0 | 4.8 | 0.00 | 0.00 | 0.00 | 69 | 1009.8 |
| 20260505060700 | 13 | 0 | 0.0 | 0.0 | 0.00 | 0.00 | 0.00 | 68 | 1009.8 |
| 20260505055201 | 13 | 0 | 0.0 | 0.0 | 0.00 | 0.00 | 0.00 | 66 | 1010.0 |
| 20260505053700 | 14 | 0 | 0.0 | 0.0 | 0.00 | 0.00 | 0.00 | 63 | 1010.0 |
| 20260505052200 | 15 | 0 | 0.0 | 0.0 | 0.00 | 0.00 | 0.00 | 61 | 1009.9 |
| 20260505050701 | 15 | 0 | 0.0 | 0.0 | 0.00 | 0.00 | 0.00 | 60 | 1010.0 |
| 20260505040700 | 16 | 209 | 3.2 | 11.3 | 0.00 | 0.00 | 0.00 | 56 | 1009.7 |
| 20260505035200 | 16 | 0 | 0.0 | 11.3 | 0.00 | 0.00 | 0.00 | 55 | 1009.7 |
| 20260505033700 | 16 | 213 | 4.8 | 14.5 | 0.00 | 0.00 | 0.00 | 55 | 1009.7 |
| 20260505032201 | 15 | 214 | 6.4 | 11.3 | 0.00 | 0.00 | 0.00 | 55 | 1009.9 |
| 20260505030700 | 15 | 0 | 0.0 | 1.6 | 0.00 | 0.00 | 0.00 | 54 | 1010.0 |
| 20260505025200 | 15 | 0 | 0.0 | 0.0 | 0.00 | 0.00 | 0.00 | 53 | 1009.8 |
| 20260505023700 | 15 | 0 | 0.0 | 0.0 | 0.00 | 0.00 | 0.00 | 53 | 1010.0 |
| 20260505022201 | 16 | 0 | 0.0 | 3.2 | 0.00 | 0.00 | 0.00 | 52 | 1010.1 |
| 20260505020700 | 16 | 0 | 0.0 | 9.7 | 0.00 | 0.00 | 0.00 | 52 | 1010.1 |
| 20260505015200 | 16 | 0 | 0.0 | 0.0 | 0.00 | 0.00 | 0.00 | 52 | 1010.0 |
| 20260505013701 | 16 | 0 | 0.0 | 0.0 | 0.00 | 0.00 | 0.00 | 50 | 1009.9 |
| 20260505012201 | 16 | 0 | 0.0 | 6.4 | 0.00 | 0.00 | 0.00 | 50 | 1009.9 |
| 20260505010700 | 16 | 0 | 0.0 | 9.7 | 0.00 | 0.00 | 0.00 | 49 | 1009.7 |
| 20260505005200 | 16 | 0 | 0.0 | 6.4 | 0.00 | 0.00 | 0.00 | 49 | 1009.6 |
| 20260505003700 | 17 | 0 | 0.0 | 0.0 | 0.00 | 0.00 | 0.00 | 47 | 1009.5 |
| 20260505002201 | 18 | 0 | 0.0 | 0.0 | 0.00 | 0.00 | 0.00 | 45 | 1009.3 |
| 20260505000700 | 19 | 0 | 0.0 | 0.0 | 0.00 | 0.00 | 0.00 | 43 | 1009.2 |
| 20260504235200 | 20 | 0 | 0.0 | 8.0 | 0.00 | 0.00 | 0.00 | 42 | 1009.2 |
| 20260504233700 | 20 | 0 | 0.0 | 6.4 | 0.00 | 0.00 | 0.00 | 41 | 1009.1 |
| 20260504232200 | 20 | 0 | 0.0 | 6.4 | 0.00 | 0.00 | 0.00 | 40 | 1009.1 |
| 20260504230701 | 21 | 0 | 0.0 | 22.5 | 0.00 | 0.00 | 0.00 | 40 | 1009.0 |
| 20260504223700 | 21 | 0 | 0.0 | 12.9 | 0.00 | 0.00 | 0.00 | 38 | 1009.2 |
| 20260504222200 | 21 | 227 | 3.2 | 11.3 | 0.00 | 0.00 | 0.00 | 39 | 1009.3 |
| 20260504220700 | 21 | 224 | 3.2 | 27.4 | 0.00 | 0.00 | 0.00 | 38 | 1009.3 |
| 20260504215201 | 22 | 0 | 0.0 | 8.0 | 0.00 | 0.00 | 0.00 | 40 | 1009.4 |
| 20260504213700 | 21 | 0 | 0.0 | 22.5 | 0.00 | 0.00 | 0.00 | 38 | 1009.5 |
| 20260504212200 | 21 | 0 | 0.0 | 25.7 | 0.00 | 0.00 | 0.00 | 39 | 1009.5 |
| 20260504210700 | 22 | 202 | 8.0 | 22.5 | 0.00 | 0.00 | 0.00 | 39 | 1009.5 |
| 20260504205200 | 21 | 201 | 14.5 | 24.1 | 0.00 | 0.00 | 0.00 | 38 | 1009.5 |
| 20260504203700 | 21 | 222 | 9.7 | 19.3 | 0.00 | 0.00 | 0.00 | 38 | 1009.6 |
| 20260504202200 | 21 | 234 | 9.7 | 25.7 | 0.00 | 0.00 | 0.00 | 38 | 1009.7 |
| 20260504200700 | 21 | 187 | 3.2 | 30.6 | 0.00 | 0.00 | 0.00 | 38 | 1009.8 |
| 20260504195200 | 21 | 217 | 1.6 | 19.3 | 0.00 | 0.00 | 0.00 | 39 | 1010.0 |
| 20260504193700 | 21 | 205 | 9.7 | 24.1 | 0.00 | 0.00 | 0.00 | 40 | 1010.1 |
| 20260504192200 | 21 | 208 | 4.8 | 20.9 | 0.00 | 0.00 | 0.00 | 39 | 1010.4 |
| 20260504190700 | 21 | 204 | 3.2 | 24.1 | 0.00 | 0.00 | 0.00 | 39 | 1010.5 |
| 20260504185200 | 21 | 209 | 14.5 | 30.6 | 0.00 | 0.00 | 0.00 | 40 | 1010.8 |
| 20260504183700 | 21 | 223 | 3.2 | 19.3 | 0.00 | 0.00 | 0.00 | 42 | 1010.9 |
| 20260504182200 | 20 | 187 | 4.8 | 29.0 | 0.00 | 0.00 | 0.00 | 38 | 1011.1 |
| 20260504180700 | 20 | 217 | 6.4 | 17.7 | 0.00 | 0.00 | 0.00 | 40 | 1011.3 |
| 20260504175200 | 20 | 216 | 4.8 | 20.9 | 0.00 | 0.00 | 0.00 | 39 | 1011.7 |
| 20260504173700 | 20 | 212 | 16.1 | 29.0 | 0.00 | 0.00 | 0.00 | 40 | 1011.8 |
| 20260504172200 | 20 | 231 | 3.2 | 19.3 | 0.00 | 0.00 | 0.00 | 41 | 1011.9 |
| 20260504170701 | 20 | 0 | 0.0 | 19.3 | 0.00 | 0.00 | 0.00 | 45 | 1012.0 |
| 20260504150700 | 17 | 236 | 3.2 | 16.1 | 0.00 | 0.00 | 0.00 | 50 | 1013.4 |
| 20260504140659 | 16 | 210 | 1.6 | 11.3 | 0.00 | 0.00 | 0.00 | 58 | 1013.7 |
| 20260504130700 | 14 | 236 | 6.4 | 16.1 | 0.00 | 0.00 | 0.00 | 62 | 1014.1 |
| 20260504110659 | 8 | 0 | 0.0 | 3.2 | 0.00 | 0.00 | 0.00 | 78 | 1014.5 |